�N����,����,����,����,����,�C��,���x,�~����,�S�V����,�ő�u�ԕ���,,,,,
,,,,,,,,,����,����,����,�N��,,
yyyy/mm/dd,hh:mm:ss,(16),16����,m/s,��,%,mm,KW/�u,(16),16����,m/s,Time,,
2016/9/1,1:00:00,5,���쓌,2,20.3,96.6,0,0,7,��쓌,3.2,21,,
2016/9/1,2:00:00,3,���k��,1.7,20.1,96.7,0.5,0,3,���k��,3.7,40,,
2016/9/1,3:00:00,4,��,1.3,20.3,97,0,0,3,���k��,2.7,6,,
2016/9/1,4:00:00,3,���k��,0.7,20.1,97,0,0,3,���k��,1.7,46,,
2016/9/1,5:00:00,3,���k��,1.5,20.1,96.9,0,0,3,���k��,2.4,56,,
2016/9/1,6:00:00,3,���k��,2,19.9,96.7,0,0.01,3,���k��,2.9,27,,
2016/9/1,7:00:00,2,�k��,1.4,20.1,96.8,0,0.05,2,�k��,3,36,,
2016/9/1,8:00:00,2,�k��,2.4,20.7,96.5,0,0.13,2,�k��,3.4,54,,
2016/9/1,9:00:00,2,�k��,1.7,21.4,94.8,0,0.19,3,���k��,3.2,1,,
2016/9/1,10:00:00,4,��,3.6,21.4,89.8,0,0.27,4,��,4.8,58,,
2016/9/1,11:00:00,4,��,3.3,22,85.2,0,0.45,4,��,4.8,10,,
2016/9/1,12:00:00,3,���k��,3.6,22.6,82.8,0,0.56,4,��,5.1,0,,
2016/9/1,13:00:00,4,��,3.8,21.8,84.3,0,0.49,4,��,5.5,24,,
2016/9/1,14:00:00,4,��,3.3,22.4,88.8,0,0.4,4,��,5.5,4,,
2016/9/1,15:00:00,5,���쓌,3,21.5,89.2,0,0.34,5,���쓌,5.2,30,,
2016/9/1,16:00:00,4,��,2.7,20.7,89.2,0,0.23,4,��,4.5,12,,
2016/9/1,17:00:00,4,��,2.2,20.2,92.6,0,0.07,4,��,3.7,1,,
2016/9/1,18:00:00,3,���k��,1.6,19.9,94.9,0,0.02,4,��,3,41,,
2016/9/1,19:00:00,1,�k�k��,0.8,20.1,96.2,0,0,2,�k��,2.4,5,,
2016/9/1,20:00:00,14,�k��,0.6,20.2,96.6,0,0,15,�k�k��,1.5,39,,
2016/9/1,21:00:00,13,���k��,0.3,20.5,96.7,0,0,12,��,1.9,18,,
2016/9/1,22:00:00,2,�k��,0.6,20.6,96.8,0,0,15,�k�k��,1.3,35,,
2016/9/1,23:00:00,16,�É�,0,20.4,96.7,0,0,3,���k��,0.7,8,,
2016/9/1,0:00:00,16,�É�,0,20.6,96.7,0,0,1,�k�k��,1.6,25,,
2016/9/2,1:00:00,3,���k��,0.6,20.6,96.6,0,0,1,�k�k��,2.5,29,,
2016/9/2,2:00:00,16,�É�,0.1,20.9,96.8,0.5,0,2,�k��,1.7,59,,
2016/9/2,3:00:00,3,���k��,2.6,19.9,95.7,0,0,3,���k��,5.2,25,,
2016/9/2,4:00:00,3,���k��,1.9,19.9,96.7,0,0,4,��,4.4,18,,
2016/9/2,5:00:00,3,���k��,2.7,19.6,96.7,0,0,3,���k��,4,50,,
2016/9/2,6:00:00,3,���k��,2.7,19.2,96.8,0,0.01,3,���k��,5,28,,
2016/9/2,7:00:00,2,�k��,2.4,19,96.8,0,0.04,3,���k��,3.9,47,,
2016/9/2,8:00:00,3,���k��,1.7,19.3,96.2,0,0.08,2,�k��,3.3,44,,
2016/9/2,9:00:00,3,���k��,2.2,19.2,94.9,0,0.11,3,���k��,3.2,11,,
2016/9/2,10:00:00,4,��,2.6,19.4,91.3,0,0.21,3,���k��,4.1,42,,
2016/9/2,11:00:00,4,��,1.2,19.7,87.7,0,0.2,4,��,3.5,13,,
2016/9/2,12:00:00,4,��,3.9,21.3,83.9,0,0.46,4,��,5,58,,
2016/9/2,13:00:00,5,���쓌,2.8,19.8,82.3,0,0.44,5,���쓌,5.4,12,,
2016/9/2,14:00:00,5,���쓌,2.3,19.4,86.7,0,0.25,4,��,4.5,22,,
2016/9/2,15:00:00,5,���쓌,1.5,18.9,87.8,0,0.12,5,���쓌,2.5,2,,
2016/9/2,16:00:00,5,���쓌,1.6,19,91.7,0,0.08,5,���쓌,2.4,59,,
2016/9/2,17:00:00,5,���쓌,0.9,18.7,92.7,0,0.05,5,���쓌,2.3,0,,
2016/9/2,18:00:00,4,��,0.9,18.8,94.4,0,0.01,4,��,1.5,59,,
2016/9/2,19:00:00,3,���k��,1.8,18.7,95.1,0,0,3,���k��,3.3,39,,
2016/9/2,20:00:00,4,��,2.3,18.7,95.9,0,0,4,��,3.9,40,,
2016/9/2,21:00:00,3,���k��,0.8,18.6,96.2,0,0,4,��,3.4,11,,
2016/9/2,22:00:00,4,��,1.9,18.4,96,0,0,4,��,3,59,,
2016/9/2,23:00:00,5,���쓌,1,18.3,96.2,0,0,4,��,3.4,28,,
2016/9/2,0:00:00,3,���k��,0.4,18.3,96.4,0.5,0,5,���쓌,2.6,4,,
2016/9/3,1:00:00,16,�É�,0,18.3,96.6,0.5,0,3,���k��,1.3,5,,
2016/9/3,2:00:00,4,��,1.8,17.9,95.9,0,0,4,��,2.5,58,,
2016/9/3,3:00:00,4,��,0.7,17.8,96,0,0,4,��,2.7,5,,
2016/9/3,4:00:00,3,���k��,0.7,17.9,96.4,0,0,2,�k��,1.3,59,,
2016/9/3,5:00:00,3,���k��,1.3,17.8,95.7,0,0,4,��,3.3,43,,
2016/9/3,6:00:00,3,���k��,1.7,18,96.2,0,0.01,3,���k��,2.7,55,,
2016/9/3,7:00:00,3,���k��,1.1,18.1,95.8,0,0.04,3,���k��,3,27,,
2016/9/3,8:00:00,3,���k��,1.4,18.5,94.6,0,0.1,3,���k��,2.2,55,,
2016/9/3,9:00:00,3,���k��,2,19,93,0,0.15,4,��,2.7,54,,
2016/9/3,10:00:00,3,���k��,2.2,18.9,90.6,0,0.15,3,���k��,3.2,0,,
2016/9/3,11:00:00,4,��,2.4,19.6,88.8,0,0.22,4,��,3.9,14,,
2016/9/3,12:00:00,4,��,2.2,19.9,84.9,0,0.3,4,��,4,24,,
2016/9/3,13:00:00,4,��,2.4,20.5,81.9,0,0.38,4,��,3.7,2,,
2016/9/3,14:00:00,4,��,0.4,20.5,75.2,0,0.42,3,���k��,3,1,,
2016/9/3,15:00:00,6,�쓌,1.2,20.4,70.8,0,0.42,6,�쓌,2.6,51,,
2016/9/3,16:00:00,6,�쓌,1.1,20,78.9,0,0.2,5,���쓌,2.6,19,,
2016/9/3,17:00:00,4,��,1.6,19.6,84.1,0,0.13,4,��,2.5,31,,
2016/9/3,18:00:00,16,�É�,0.2,18.3,85.6,0,0.06,4,��,1.9,9,,
2016/9/3,19:00:00,16,�É�,0,17.2,89.4,0,0,16,�É�,0.1,0,,
2016/9/3,20:00:00,16,�É�,0,16.7,92.3,0,0,16,�É�,0.2,0,,
2016/9/3,21:00:00,16,�É�,0,17.8,94,0,0,12,��,1.3,3,,
2016/9/3,22:00:00,11,���쐼,0.4,18.1,94.6,0,0,12,��,1.1,48,,
2016/9/3,23:00:00,16,�É�,0.2,18.3,94.8,0,0,14,�k��,2.1,38,,
2016/9/3,0:00:00,16,�É�,0,18.4,94.9,0,0,13,���k��,0.9,14,,
2016/9/4,1:00:00,14,�k��,0.3,18.5,95.1,0,0,13,���k��,0.7,20,,
2016/9/4,2:00:00,3,���k��,1.1,18.6,95.1,0,0,3,���k��,1.9,56,,
2016/9/4,3:00:00,3,���k��,2.1,18.7,94.2,0,0,3,���k��,3.5,43,,
2016/9/4,4:00:00,2,�k��,0.9,18.5,94.4,0,0,3,���k��,2.8,19,,
2016/9/4,5:00:00,2,�k��,1.4,18.3,93.9,0,0,2,�k��,2.5,23,,
2016/9/4,6:00:00,2,�k��,1.6,18.3,93.6,0,0.01,2,�k��,2.3,53,,
2016/9/4,7:00:00,3,���k��,2,18.8,92,0,0.06,2,�k��,2.9,21,,
2016/9/4,8:00:00,3,���k��,2.7,19.5,88,0,0.17,4,��,4.4,41,,
2016/9/4,9:00:00,3,���k��,3.2,19.4,86.4,0,0.2,4,��,4.9,46,,
2016/9/4,10:00:00,4,��,3,20.1,83.8,0,0.33,4,��,5,27,,
2016/9/4,11:00:00,4,��,3.4,19.9,85.7,0,0.32,4,��,5.5,47,,
2016/9/4,12:00:00,4,��,3.5,19.6,86.2,0,0.24,3,���k��,5.5,50,,
2016/9/4,13:00:00,4,��,3.8,19.4,86.9,0,0.23,4,��,5.4,26,,
2016/9/4,14:00:00,4,��,2.6,19.2,92.2,0,0.16,4,��,4.9,4,,
2016/9/4,15:00:00,4,��,2.5,19.6,89.8,0,0.16,4,��,3.9,53,,
2016/9/4,16:00:00,4,��,3.3,19.4,87.6,0,0.15,4,��,4.3,56,,
2016/9/4,17:00:00,3,���k��,1.8,19,90.7,0,0.05,4,��,4,25,,
2016/9/4,18:00:00,2,�k��,1.1,18.6,94.1,0,0.01,3,���k��,2.7,1,,
2016/9/4,19:00:00,2,�k��,1.8,18.4,95.1,0.5,0,3,���k��,3.4,30,,
2016/9/4,20:00:00,2,�k��,1,18.4,95.8,0,0,2,�k��,2.8,6,,
2016/9/4,21:00:00,2,�k��,0.6,18.5,96.2,0,0,1,�k�k��,1.8,6,,
2016/9/4,22:00:00,16,�É�,0,18.5,96.2,0,0,2,�k��,0.7,0,,
2016/9/4,23:00:00,16,�É�,0,18.5,96.3,0,0,16,�É�,0.1,0,,
2016/9/4,0:00:00,16,�É�,0.1,18.5,96.2,0,0,15,�k�k��,0.9,44,,
2016/9/5,1:00:00,16,�É�,0,18.5,96,0,0,16,�k,1.5,13,,
2016/9/5,2:00:00,1,�k�k��,0.7,18.4,95.5,0,0,1,�k�k��,1.5,43,,
2016/9/5,3:00:00,1,�k�k��,1,18.4,95.5,0.5,0,1,�k�k��,1.6,51,,
2016/9/5,4:00:00,2,�k��,1.3,18.4,95.8,0,0,1,�k�k��,2,58,,
2016/9/5,5:00:00,1,�k�k��,1.2,18.3,95.8,0,0,2,�k��,2.1,23,,
2016/9/5,6:00:00,1,�k�k��,1.6,18.3,95.7,0,0.01,2,�k��,2.4,45,,
2016/9/5,7:00:00,2,�k��,1.5,18.4,95.9,0.5,0.05,2,�k��,3.1,19,,
2016/9/5,8:00:00,2,�k��,2.4,18.8,95,0,0.08,2,�k��,3.9,43,,
2016/9/5,9:00:00,3,���k��,3.1,18.8,94.8,0,0.12,3,���k��,4.6,57,,
2016/9/5,10:00:00,3,���k��,2.7,19.6,94,0,0.21,2,�k��,4.3,51,,
2016/9/5,11:00:00,3,���k��,3.1,19.2,93.5,0,0.19,3,���k��,4.7,16,,
2016/9/5,12:00:00,2,�k��,1.9,19.9,93.1,0,0.2,2,�k��,3.7,12,,
2016/9/5,13:00:00,3,���k��,2.7,19.8,91.5,0.5,0.21,3,���k��,3.8,59,,
2016/9/5,14:00:00,4,��,2.6,20.1,93.4,0,0.22,3,���k��,4.3,10,,
2016/9/5,15:00:00,3,���k��,2.9,19.9,93.3,0,0.16,3,���k��,4.6,23,,
2016/9/5,16:00:00,3,���k��,2.4,19.6,94.2,0,0.09,3,���k��,4.4,26,,
2016/9/5,17:00:00,2,�k��,1.6,19.5,95.2,0.5,0.03,3,���k��,3.5,10,,
2016/9/5,18:00:00,2,�k��,1.1,19.6,95.8,0.5,0.01,2,�k��,2.4,3,,
2016/9/5,19:00:00,1,�k�k��,1,19.6,96.2,0.5,0,1,�k�k��,2,2,,
2016/9/5,20:00:00,2,�k��,1.4,19.7,96.3,0,0,2,�k��,1.9,52,,
2016/9/5,21:00:00,2,�k��,1,19.7,96.4,0.5,0,2,�k��,2.5,5,,
2016/9/5,22:00:00,1,�k�k��,1,19.5,96.5,0,0,1,�k�k��,1.5,50,,
2016/9/5,23:00:00,1,�k�k��,0.9,19.5,96.4,0.5,0,3,���k��,1.9,20,,
2016/9/5,0:00:00,14,�k��,0.5,19.4,96.5,0.5,0,1,�k�k��,1.6,3,,
2016/9/6,1:00:00,14,�k��,1.8,19.4,96.1,0,0,14,�k��,3.7,48,,
2016/9/6,2:00:00,15,�k�k��,0.3,19.4,96.5,0.5,0,14,�k��,3.2,12,,
2016/9/6,3:00:00,14,�k��,1.5,19.5,96.6,0,0,14,�k��,3.1,17,,
2016/9/6,4:00:00,13,���k��,1.7,19.6,96.9,0.5,0,13,���k��,2.8,52,,
2016/9/6,5:00:00,14,�k��,1.9,19.7,96.9,0,0,2,�k��,3.1,53,,
2016/9/6,6:00:00,1,�k�k��,2.7,20,97.1,0.5,0.01,2,�k��,4.7,47,,
2016/9/6,7:00:00,2,�k��,2.6,19.9,97.1,0,0.03,1,�k�k��,4.3,58,,
2016/9/6,8:00:00,3,���k��,1.5,20,97.1,0.5,0.05,1,�k�k��,4.7,24,,
2016/9/6,9:00:00,2,�k��,2.8,20.3,96.8,0.5,0.08,1,�k�k��,5.7,15,,
2016/9/6,10:00:00,2,�k��,2.7,20.5,96.3,1.5,0.09,2,�k��,4.9,25,,
2016/9/6,11:00:00,2,�k��,3.1,20.1,95.8,0,0.06,3,���k��,5.4,49,,
2016/9/6,12:00:00,2,�k��,2.3,20.6,96.4,0,0.12,2,�k��,5,16,,
2016/9/6,13:00:00,3,���k��,2,21,95.7,0,0.18,3,���k��,3.7,51,,
2016/9/6,14:00:00,14,�k��,0.8,21.3,89.4,0,0.17,3,���k��,1.9,4,,
2016/9/6,15:00:00,16,�k,0.6,21.7,92.6,2,0.07,14,�k��,2,0,,
2016/9/6,16:00:00,6,�쓌,0.7,21.5,91.3,0,0.07,5,���쓌,1.5,59,,
2016/9/6,17:00:00,7,��쓌,0.5,21.1,92.9,0,0.04,7,��쓌,2.6,9,,
2016/9/6,18:00:00,16,�É�,0.1,20.7,93.4,0,0.02,5,���쓌,2.7,10,,
2016/9/6,19:00:00,16,�É�,0.2,20.5,94.5,0,0,16,�k,3.2,29,,
2016/9/6,20:00:00,16,�É�,0,20.6,95.4,0,0,15,�k�k��,1.6,42,,
2016/9/6,21:00:00,14,�k��,2.4,20.4,95.1,0,0,14,�k��,4,50,,
2016/9/6,22:00:00,14,�k��,1.2,20.1,94.8,0,0,13,���k��,4.7,21,,
2016/9/6,23:00:00,12,��,2.5,19.5,93.7,0,0,13,���k��,4.7,25,,
2016/9/6,0:00:00,7,��쓌,0.4,18.7,93.8,0,0,6,�쓌,5,33,,
2016/9/7,1:00:00,10,�쐼,1.3,17.6,93.5,0,0,5,���쓌,2.8,14,,
2016/9/7,2:00:00,15,�k�k��,1.7,19.4,92,0,0,12,��,6.5,32,,
2016/9/7,3:00:00,7,��쓌,0.6,17.5,90.8,0,0,1,�k�k��,2.2,24,,
2016/9/7,4:00:00,13,���k��,0.3,17.8,94,0,0,13,���k��,2.6,18,,
2016/9/7,5:00:00,12,��,0.8,16.9,93.5,0,0,12,��,2.8,7,,
2016/9/7,6:00:00,13,���k��,1.5,18.3,96.1,0,0.07,12,��,3.6,33,,
2016/9/7,7:00:00,12,��,1.4,19.8,87,0,0.15,14,�k��,3,23,,
2016/9/7,8:00:00,15,�k�k��,1.6,23.4,63.4,0,0.43,14,�k��,3.2,51,,
2016/9/7,9:00:00,14,�k��,1.5,24.9,54.1,0,0.65,1,�k�k��,3.9,9,,
2016/9/7,10:00:00,6,�쓌,1.2,25.3,46.7,0,0.74,6,�쓌,3,57,,
2016/9/7,11:00:00,7,��쓌,0.6,25.1,61.1,0,0.82,8,��,3.7,52,,
2016/9/7,12:00:00,16,�É�,0,25.3,55.7,0,0.86,8,��,4.2,4,,
2016/9/7,13:00:00,16,�É�,0,24.7,59.4,0,0.8,8,��,1,5,,
2016/9/7,14:00:00,16,�É�,0,24.9,60.5,0,0.73,16,�É�,0.1,0,,
2016/9/7,15:00:00,7,��쓌,0.4,25.2,63,0,0.61,6,�쓌,1.4,39,,
2016/9/7,16:00:00,16,�É�,0,26.2,59.9,0,0.44,4,��,2.4,19,,
2016/9/7,17:00:00,16,�É�,0,22.7,64.7,0,0.17,6,�쓌,0.4,14,,
2016/9/7,18:00:00,8,��,0.4,20.2,78.2,0,0.02,5,���쓌,1.6,59,,
2016/9/7,19:00:00,2,�k��,2.7,20.4,87.7,0,0,3,���k��,5.7,43,,
2016/9/7,20:00:00,2,�k��,3.1,20.4,88.5,0,0,2,�k��,5.4,43,,
2016/9/7,21:00:00,15,�k�k��,1.5,20.7,88.6,0,0,1,�k�k��,6.1,18,,
2016/9/7,22:00:00,15,�k�k��,1.6,19.8,85,0,0,14,�k��,4.2,1,,
2016/9/7,23:00:00,14,�k��,1.8,18.8,87.4,0,0,12,��,3,56,,
2016/9/7,0:00:00,14,�k��,2.1,17.5,89.4,0,0,15,�k�k��,5.3,20,,
2016/9/8,1:00:00,15,�k�k��,1.8,16.4,92.1,0,0,15,�k�k��,5.2,5,,
2016/9/8,2:00:00,15,�k�k��,2.2,15.7,93.2,0,0,15,�k�k��,4.4,52,,
2016/9/8,3:00:00,14,�k��,1.8,15.1,93.6,0.5,0,15,�k�k��,5.6,9,,
2016/9/8,4:00:00,15,�k�k��,1.9,14.9,94.1,0,0,15,�k�k��,5.4,32,,
2016/9/8,5:00:00,16,�k,1.3,14.6,92.9,0,0,1,�k�k��,4.7,37,,
2016/9/8,6:00:00,14,�k��,1.4,14.3,93.1,0.5,0.01,1,�k�k��,3.4,10,,
2016/9/8,7:00:00,14,�k��,1.5,14.2,93.7,0,0.05,13,���k��,3.1,8,,
2016/9/8,8:00:00,13,���k��,2.5,14.7,94.2,0.5,0.09,13,���k��,4.3,38,,
2016/9/8,9:00:00,16,�k,1.6,15.5,93,0,0.21,14,�k��,4.4,4,,
2016/9/8,10:00:00,1,�k�k��,2,15.9,84.6,0,0.33,1,�k�k��,4.1,1,,
2016/9/8,11:00:00,1,�k�k��,1.5,16.7,77.3,0,0.31,1,�k�k��,3.8,3,,
2016/9/8,12:00:00,2,�k��,2.4,17.8,74.2,0,0.4,1,�k�k��,5,42,,
2016/9/8,13:00:00,1,�k�k��,1.1,18,72.8,0,0.24,2,�k��,3.8,9,,
2016/9/8,14:00:00,16,�k,1.2,17,73.8,0,0.19,2,�k��,4.1,27,,
2016/9/8,15:00:00,15,�k�k��,0.5,16.8,83.7,0,0.11,15,�k�k��,2.5,34,,
2016/9/8,16:00:00,16,�k,0.8,16.8,81.3,0,0.05,1,�k�k��,1.7,59,,
2016/9/8,17:00:00,1,�k�k��,0.8,16.5,82.3,0,0.03,3,���k��,2,50,,
2016/9/8,18:00:00,15,�k�k��,1.3,16.1,83.1,0,0,14,�k��,2.6,44,,
2016/9/8,19:00:00,16,�k,1.2,15.7,85.3,0,0,1,�k�k��,4.9,2,,
2016/9/8,20:00:00,2,�k��,2.9,15.1,91,1,0,2,�k��,7.4,49,,
2016/9/8,21:00:00,2,�k��,2.8,14.4,93.3,1,0,2,�k��,6.5,40,,
2016/9/8,22:00:00,15,�k�k��,1.7,13.7,94.3,3.5,0,2,�k��,6.9,22,,
2016/9/8,23:00:00,16,�k,1.6,13.6,95,3.5,0,1,�k�k��,4.1,6,,
2016/9/8,0:00:00,16,�k,2.7,13.6,95.1,4,0,1,�k�k��,4.7,47,,
2016/9/9,1:00:00,1,�k�k��,3.3,13.4,95.4,3.5,0,1,�k�k��,5.8,43,,
2016/9/9,2:00:00,1,�k�k��,2.8,13.4,95.9,3.5,0,1,�k�k��,7,38,,
2016/9/9,3:00:00,16,�k,2.2,13.4,96,7.5,0,1,�k�k��,6.2,40,,
2016/9/9,4:00:00,14,�k��,3.4,13.4,96.2,7.5,0,14,�k��,6.2,58,,
2016/9/9,5:00:00,14,�k��,2.8,13.5,96.5,8,0,13,���k��,7.3,25,,
2016/9/9,6:00:00,13,���k��,4.8,13.3,96.7,13.5,0,14,�k��,7.2,51,,
2016/9/9,7:00:00,13,���k��,5.6,13.4,96.8,8,0.01,14,�k��,10.4,53,,
2016/9/9,8:00:00,14,�k��,5.1,13.9,97.1,9,0.02,12,��,9.5,27,,
2016/9/9,9:00:00,16,�k,2.5,15.2,97.4,8,0.05,14,�k��,8.5,1,,
2016/9/9,10:00:00,14,�k��,3.1,15.2,96.9,10,0.03,15,�k�k��,6.3,51,,
2016/9/9,11:00:00,14,�k��,3.4,15.3,96.5,8,0.06,14,�k��,6.4,49,,
2016/9/9,12:00:00,14,�k��,5.7,15.7,95.9,5.5,0.13,14,�k��,10.6,52,,
2016/9/9,13:00:00,14,�k��,5.9,16.5,96.2,2,0.16,13,���k��,10,13,,
2016/9/9,14:00:00,14,�k��,6.4,16.9,95.7,1,0.13,13,���k��,10.7,59,,
2016/9/9,15:00:00,14,�k��,5.8,17,95,2,0.18,14,�k��,10.9,51,,
2016/9/9,16:00:00,14,�k��,4.5,17.1,95.4,4,0.11,13,���k��,11.2,25,,
2016/9/9,17:00:00,14,�k��,4.3,17,95.1,0.5,0.07,15,�k�k��,8.8,13,,
2016/9/9,18:00:00,14,�k��,4,16.9,95.1,0.5,0.02,14,�k��,8,56,,
2016/9/9,19:00:00,14,�k��,3,17.2,93.9,0,0,14,�k��,7.6,3,,
2016/9/9,20:00:00,13,���k��,2.3,17.3,89.9,0,0,11,���쐼,5.4,4,,
2016/9/9,21:00:00,12,��,1.8,16.8,89.8,0,0,13,���k��,3.1,2,,
2016/9/9,22:00:00,12,��,1.7,17,91.4,0,0,11,���쐼,2.8,44,,
2016/9/9,23:00:00,12,��,1.1,15.9,91,0,0,11,���쐼,2.5,40,,
2016/9/9,0:00:00,16,�É�,0,15.2,92,0,0,12,��,1.8,21,,
2016/9/10,1:00:00,14,�k��,1.1,13.6,92.5,0,0,6,�쓌,2.7,11,,
2016/9/10,2:00:00,13,���k��,2.2,14.4,95.7,0,0,13,���k��,3.7,59,,
2016/9/10,3:00:00,10,�쐼,1.2,13.7,96.3,0,0,14,�k��,5.2,1,,
2016/9/10,4:00:00,12,��,1.7,13.2,95.7,0,0,12,��,2.6,58,,
2016/9/10,5:00:00,12,��,1.1,13.7,96.5,0,0,13,���k��,2.6,36,,
2016/9/10,6:00:00,16,�É�,0,15.1,97.9,0,0.07,12,��,2.2,9,,
2016/9/10,7:00:00,13,���k��,0.8,18,82.1,0,0.31,14,�k��,2.6,41,,
2016/9/10,8:00:00,1,�k�k��,0.9,20.7,66.3,0,0.39,1,�k�k��,2.3,56,,
2016/9/10,9:00:00,4,��,0.9,22.8,55.3,0,0.6,5,���쓌,2.7,58,,
2016/9/10,10:00:00,6,�쓌,2.7,22.4,59.9,0,0.74,5,���쓌,4.2,55,,
2016/9/10,11:00:00,5,���쓌,1.4,23.5,58.6,0,0.83,6,�쓌,4.5,42,,
2016/9/10,12:00:00,3,���k��,0.4,24.9,60,0,0.87,6,�쓌,4.9,15,,
2016/9/10,13:00:00,16,�É�,0,25.2,54.8,0,0.82,1,�k�k��,1.8,24,,
2016/9/10,14:00:00,12,��,1.7,26.6,46.9,0,0.73,11,���쐼,6.4,59,,
2016/9/10,15:00:00,11,���쐼,6.1,25.1,52.3,0,0.59,11,���쐼,10.6,40,,
2016/9/10,16:00:00,10,�쐼,4.4,24.3,54.7,0,0.42,10,�쐼,9,0,,
2016/9/10,17:00:00,13,���k��,2.2,21.3,58.5,0,0.2,10,�쐼,6.8,1,,
2016/9/10,18:00:00,13,���k��,2,18.2,71.6,0,0.02,12,��,4.4,34,,
2016/9/10,19:00:00,13,���k��,1.4,17.6,83.1,0,0,14,�k��,3.4,50,,
2016/9/10,20:00:00,16,�k,1,18.3,81.2,0,0,2,�k��,3.1,53,,
2016/9/10,21:00:00,12,��,1.3,16.5,79.8,0,0,1,�k�k��,5,2,,
2016/9/10,22:00:00,14,�k��,0.9,14.3,84.4,0,0,12,��,2,1,,
2016/9/10,23:00:00,16,�É�,0,13.7,87.4,0,0,15,�k�k��,2.9,32,,
2016/9/10,0:00:00,16,�k,0.8,13.3,90.2,0,0,15,�k�k��,2.2,16,,
2016/9/11,1:00:00,2,�k��,1.5,13.3,91.4,0,0,3,���k��,3.3,26,,
2016/9/11,2:00:00,13,���k��,1.7,12.1,90.7,0,0,13,���k��,2.5,38,,
2016/9/11,3:00:00,14,�k��,2.5,13.2,94.8,0,0,13,���k��,3.7,55,,
2016/9/11,4:00:00,15,�k�k��,1.2,13.2,93.1,0,0,13,���k��,3.4,8,,
2016/9/11,5:00:00,14,�k��,1.9,12.2,92.7,0,0,14,�k��,3.2,47,,
2016/9/11,6:00:00,12,��,1.2,13.3,95.2,0,0.07,13,���k��,3.7,2,,
2016/9/11,7:00:00,13,���k��,1.4,14.7,88.1,0,0.15,13,���k��,2.9,31,,
2016/9/11,8:00:00,13,���k��,0.8,16.1,82.8,0,0.17,14,�k��,2.6,0,,
2016/9/11,9:00:00,16,�É�,0.1,17.9,74.7,0,0.25,2,�k��,1.4,41,,
2016/9/11,10:00:00,10,�쐼,0.4,19.3,52.1,0,0.63,10,�쐼,3.2,35,,
2016/9/11,11:00:00,3,���k��,2.5,21,54.6,0,0.63,5,���쓌,4.4,55,,
2016/9/11,12:00:00,5,���쓌,4.2,19.9,64.1,0,0.74,5,���쓌,6,51,,
2016/9/11,13:00:00,6,�쓌,3.6,18.5,66.5,0,0.58,6,�쓌,6.1,52,,
2016/9/11,14:00:00,7,��쓌,2.7,18.2,71.2,0,0.3,6,�쓌,5.7,16,,
2016/9/11,15:00:00,8,��,2.4,18.5,71.1,0,0.25,9,��쐼,5.4,0,,
2016/9/11,16:00:00,8,��,2.5,18.3,72.2,0,0.19,9,��쐼,5.2,12,,
2016/9/11,17:00:00,8,��,1.2,17.8,78.3,0,0.09,8,��,5.1,3,,
2016/9/11,18:00:00,8,��,1.1,17.4,81.4,0,0.02,8,��,3,8,,
2016/9/11,19:00:00,7,��쓌,1.4,17.5,85.4,0,0,7,��쓌,2.9,57,,
2016/9/11,20:00:00,7,��쓌,0.7,17.3,85.4,0,0,8,��,3.1,0,,
2016/9/11,21:00:00,16,�É�,0,15.9,88.4,0,0,16,�k,1,30,,
2016/9/11,22:00:00,13,���k��,0.3,15.9,91.2,0,0,15,�k�k��,1.9,42,,
2016/9/11,23:00:00,14,�k��,1.9,15.9,92.2,0,0,13,���k��,2.8,57,,
2016/9/11,0:00:00,2,�k��,2,15.7,91,0.5,0,15,�k�k��,5.7,24,,
2016/9/12,1:00:00,1,�k�k��,0.9,15,91.8,0,0,2,�k��,3.3,17,,
2016/9/12,2:00:00,16,�k,0.4,14.5,92.6,0,0,2,�k��,2.2,6,,
2016/9/12,3:00:00,1,�k�k��,0.8,14.2,91.9,0,0,1,�k�k��,1.9,46,,
2016/9/12,4:00:00,16,�É�,0,13.9,92.2,0,0,2,�k��,0.9,16,,
2016/9/12,5:00:00,12,��,0.7,13.9,92.5,0,0,12,��,1.3,51,,
2016/9/12,6:00:00,14,�k��,0.3,14.1,92.4,0,0.01,11,���쐼,1.3,59,,
2016/9/12,7:00:00,12,��,2.3,14.4,89.6,0,0.07,12,��,3.1,50,,
2016/9/12,8:00:00,13,���k��,1.8,15.7,82.7,0,0.23,12,��,3.2,21,,
2016/9/12,9:00:00,16,�É�,0.2,16.4,69.8,0,0.34,12,��,2.7,5,,
2016/9/12,10:00:00,5,���쓌,2.3,16.8,71.9,0,0.26,5,���쓌,4.3,47,,
2016/9/12,11:00:00,4,��,3.6,17.5,64.7,0,0.45,4,��,5.6,45,,
2016/9/12,12:00:00,5,���쓌,3.1,17.6,63.1,0,0.42,4,��,5.6,0,,
2016/9/12,13:00:00,6,�쓌,2.1,17.3,61.3,0,0.37,4,��,5.1,0,,
2016/9/12,14:00:00,6,�쓌,1.8,17.4,61.9,0,0.32,6,�쓌,4,22,,
2016/9/12,15:00:00,6,�쓌,1.5,17.5,64.8,0,0.25,6,�쓌,3.2,53,,
2016/9/12,16:00:00,8,��,2,17.1,65,0,0.22,8,��,3.3,57,,
2016/9/12,17:00:00,8,��,0.9,16.8,69.5,0,0.1,6,�쓌,3.2,16,,
2016/9/12,18:00:00,7,��쓌,0.5,15.8,76,0,0.01,7,��쓌,2.2,29,,
2016/9/12,19:00:00,16,�É�,0,15,83.8,0,0,6,�쓌,1.6,43,,
2016/9/12,20:00:00,16,�É�,0,14.5,89.1,0,0,15,�k�k��,0.6,4,,
2016/9/12,21:00:00,13,���k��,1.5,14.1,89.1,0,0,14,�k��,2.3,59,,
2016/9/12,22:00:00,13,���k��,1.3,14.3,89.6,0,0,14,�k��,2.5,4,,
2016/9/12,23:00:00,16,�É�,0,14.4,90.2,0,0,14,�k��,2.5,5,,
2016/9/12,0:00:00,13,���k��,0.9,14.3,90.6,0,0,13,���k��,1.4,52,,
2016/9/13,1:00:00,13,���k��,1.3,14.5,90.6,0,0,13,���k��,2.4,53,,
2016/9/13,2:00:00,13,���k��,1.4,14,90.4,0,0,12,��,2,52,,
2016/9/13,3:00:00,14,�k��,1.5,13.8,91.5,0,0,14,�k��,2.4,55,,
2016/9/13,4:00:00,13,���k��,1.3,13.7,93,0,0,13,���k��,2.3,53,,
2016/9/13,5:00:00,13,���k��,1.4,13.9,93.7,0,0,14,�k��,2.5,2,,
2016/9/13,6:00:00,13,���k��,0.7,14,92.6,0,0.02,14,�k��,2.3,0,,
2016/9/13,7:00:00,14,�k��,0.9,14.7,90.9,0,0.05,14,�k��,1.7,47,,
2016/9/13,8:00:00,1,�k�k��,0.8,16.6,84.5,0,0.16,1,�k�k��,2.2,49,,
2016/9/13,9:00:00,2,�k��,1.7,17.5,75.4,0,0.3,2,�k��,2.9,41,,
2016/9/13,10:00:00,2,�k��,2.1,18.7,69.3,0,0.46,2,�k��,4.1,39,,
2016/9/13,11:00:00,2,�k��,0.8,18.8,71.3,0,0.29,4,��,4.6,4,,
2016/9/13,12:00:00,6,�쓌,2.3,19.8,57,0,0.65,5,���쓌,5,46,,
2016/9/13,13:00:00,5,���쓌,3.9,18,73.7,0,0.37,5,���쓌,7.6,30,,
2016/9/13,14:00:00,6,�쓌,1.7,17.7,72.3,0,0.17,5,���쓌,5.8,1,,
2016/9/13,15:00:00,6,�쓌,0.7,17.7,72.4,0,0.13,6,�쓌,2.9,5,,
2016/9/13,16:00:00,4,��,0.5,17.7,71.7,0,0.1,5,���쓌,1.8,8,,
2016/9/13,17:00:00,6,�쓌,0.5,17.4,71.7,0,0.05,7,��쓌,2.1,28,,
2016/9/13,18:00:00,16,�É�,0.1,15.2,81.3,0,0.01,8,��,1.4,43,,
2016/9/13,19:00:00,13,���k��,0.6,14.3,86.3,0,0,12,��,1.1,59,,
2016/9/13,20:00:00,13,���k��,0.4,14.1,89.3,0,0,13,���k��,1.5,58,,
2016/9/13,21:00:00,16,�É�,0,13.9,92.5,0,0,13,���k��,2,16,,
2016/9/13,22:00:00,14,�k��,1.1,14,92.8,0,0,13,���k��,3.2,49,,
2016/9/13,23:00:00,12,��,1.5,13,92.3,0,0,13,���k��,2.2,57,,
2016/9/13,0:00:00,13,���k��,1.4,12.5,92.7,0,0,13,���k��,2.5,51,,
2016/9/14,1:00:00,14,�k��,1.5,12.7,94.3,0,0,9,��쐼,2.4,55,,
2016/9/14,2:00:00,14,�k��,1.8,12.7,94.1,0,0,14,�k��,3.4,58,,
2016/9/14,3:00:00,14,�k��,2.7,12.6,93.6,0,0,13,���k��,4.5,53,,
2016/9/14,4:00:00,13,���k��,1,13.1,94.2,0,0,14,�k��,3.8,27,,
2016/9/14,5:00:00,14,�k��,1.8,13.2,93.3,0,0,14,�k��,2.8,58,,
2016/9/14,6:00:00,14,�k��,2,13.4,93.3,0,0.02,14,�k��,4.4,38,,
2016/9/14,7:00:00,15,�k�k��,0.7,14.5,92.1,0,0.05,14,�k��,3.7,19,,
2016/9/14,8:00:00,13,���k��,1.8,14.8,88,0,0.08,13,���k��,3.1,40,,
2016/9/14,9:00:00,13,���k��,2.1,16,91.9,0,0.11,13,���k��,3.2,40,,
2016/9/14,10:00:00,1,�k�k��,1.3,15.9,84.4,0,0.16,13,���k��,3.2,7,,
2016/9/14,11:00:00,14,�k��,1.2,15.9,86.1,0,0.15,14,�k��,2.2,50,,
2016/9/14,12:00:00,14,�k��,1.8,16.8,84,0,0.21,13,���k��,2.8,56,,
2016/9/14,13:00:00,13,���k��,1.6,18.1,76.1,0,0.35,13,���k��,2.7,57,,
2016/9/14,14:00:00,6,�쓌,0.4,19.5,67.1,0,0.35,13,���k��,2.2,2,,
2016/9/14,15:00:00,7,��쓌,1.3,18.7,70.7,0,0.21,6,�쓌,2.5,7,,
2016/9/14,16:00:00,5,���쓌,0.9,18.4,75.9,0,0.14,5,���쓌,2.1,20,,
2016/9/14,17:00:00,4,��,0.8,17.9,78.4,0,0.08,5,���쓌,1.4,40,,
2016/9/14,18:00:00,16,�É�,0,16.6,87.1,0,0.01,5,���쓌,1,7,,
2016/9/14,19:00:00,14,�k��,0.7,16.3,88.6,0,0,12,��,1.4,59,,
2016/9/14,20:00:00,14,�k��,1.1,16.4,91.5,0,0,13,���k��,1.9,59,,
2016/9/14,21:00:00,13,���k��,1.1,16.2,92.1,0,0,14,�k��,2.4,55,,
2016/9/14,22:00:00,14,�k��,0.9,16,92.5,0,0,14,�k��,1.7,58,,
2016/9/14,23:00:00,14,�k��,1.5,16,92.1,0,0,14,�k��,2.4,52,,
2016/9/14,0:00:00,13,���k��,1.2,15.7,92.4,0,0,13,���k��,2.3,47,,
2016/9/15,1:00:00,13,���k��,1.3,15.3,92.7,0,0,13,���k��,2.6,6,,
2016/9/15,2:00:00,14,�k��,0.7,14.8,93.3,0,0,15,�k�k��,2,59,,
2016/9/15,3:00:00,14,�k��,2.4,14.7,94.8,0,0,14,�k��,4,41,,
2016/9/15,4:00:00,13,���k��,1.8,14.3,95.5,0,0,14,�k��,4.1,16,,
2016/9/15,5:00:00,13,���k��,1.1,14.1,95.6,0,0,14,�k��,4.7,44,,
2016/9/15,6:00:00,14,�k��,1.5,14.6,96.4,0,0.05,13,���k��,3.1,13,,
2016/9/15,7:00:00,13,���k��,2,16.3,80.8,0,0.23,13,���k��,3.5,57,,
2016/9/15,8:00:00,11,���쐼,1.5,18.9,65.3,0,0.43,13,���k��,3.5,13,,
2016/9/15,9:00:00,10,�쐼,1.2,20.7,48.9,0,0.6,8,��,2.3,55,,
2016/9/15,10:00:00,7,��쓌,2.9,20.5,58.4,0,0.73,7,��쓌,4.4,48,,
2016/9/15,11:00:00,7,��쓌,2.8,20.8,60.9,0,0.81,8,��,5,35,,
2016/9/15,12:00:00,7,��쓌,3.7,20.9,62.9,0,0.84,7,��쓌,5.8,57,,
2016/9/15,13:00:00,7,��쓌,3.2,21.4,66,0,0.79,8,��,6.2,7,,
2016/9/15,14:00:00,8,��,3.2,21.6,66.5,0,0.7,7,��쓌,5.3,38,,
2016/9/15,15:00:00,8,��,2.5,21,70.6,0,0.46,8,��,4.7,57,,
2016/9/15,16:00:00,9,��쐼,1.2,21.6,75.3,0,0.39,9,��쐼,4.7,45,,
2016/9/15,17:00:00,6,�쓌,0.9,20.5,74.6,0,0.18,8,��,3.6,8,,
2016/9/15,18:00:00,2,�k��,1,17.4,83.9,0,0.01,2,�k��,2.2,50,,
2016/9/15,19:00:00,2,�k��,0.7,16,89.7,0,0,3,���k��,2.1,56,,
2016/9/15,20:00:00,2,�k��,3,17.8,95.5,0,0,2,�k��,4.2,56,,
2016/9/15,21:00:00,1,�k�k��,2.1,17.9,94,0,0,2,�k��,4.9,0,,
2016/9/15,22:00:00,15,�k�k��,1.1,18,93.4,0,0,2,�k��,2.8,6,,
2016/9/15,23:00:00,13,���k��,1.7,17.9,92.2,0,0,13,���k��,3.2,45,,
2016/9/15,0:00:00,16,�É�,0.2,16.5,91.5,0,0,14,�k��,2.3,6,,
2016/9/16,1:00:00,14,�k��,0.7,17.1,93.9,0,0,14,�k��,1.8,48,,
2016/9/16,2:00:00,16,�É�,0,16.7,94.5,0,0,13,���k��,1.7,27,,
2016/9/16,3:00:00,1,�k�k��,0.6,16.8,94.4,0,0,15,�k�k��,1.6,47,,
2016/9/16,4:00:00,1,�k�k��,1.6,17.1,92,0,0,2,�k��,3.6,41,,
2016/9/16,5:00:00,1,�k�k��,1.4,17.1,93,0,0,1,�k�k��,2.7,15,,
2016/9/16,6:00:00,2,�k��,2.1,17.1,93.2,0,0.02,3,���k��,4.2,42,,
2016/9/16,7:00:00,2,�k��,3.2,17.3,92.5,0,0.04,3,���k��,5.6,48,,
2016/9/16,8:00:00,3,���k��,3.8,17.5,91.7,0,0.09,3,���k��,6.5,45,,
2016/9/16,9:00:00,3,���k��,4.4,18,90.1,0,0.17,3,���k��,7,32,,
2016/9/16,10:00:00,3,���k��,5.1,18.5,86.7,0,0.31,3,���k��,7.5,56,,
2016/9/16,11:00:00,3,���k��,6,19.2,85.3,0,0.36,3,���k��,9.2,47,,
2016/9/16,12:00:00,3,���k��,4.9,20.5,83.2,0,0.56,3,���k��,8.3,29,,
2016/9/16,13:00:00,3,���k��,6.5,20.1,79.5,0,0.65,2,�k��,9,50,,
2016/9/16,14:00:00,3,���k��,4.3,20.3,83.5,0,0.41,3,���k��,7.9,6,,
2016/9/16,15:00:00,3,���k��,3.6,19.5,84.3,0,0.3,4,��,6.7,3,,
2016/9/16,16:00:00,3,���k��,2.2,19.9,84,0,0.16,3,���k��,5.2,0,,
2016/9/16,17:00:00,6,�쓌,0.7,19.9,79,0,0.14,2,�k��,3.1,3,,
2016/9/16,18:00:00,9,��쐼,4.3,18.9,87,0,0.01,9,��쐼,8,46,,
2016/9/16,19:00:00,9,��쐼,2.9,18.8,88.4,0,0,9,��쐼,8.7,6,,
2016/9/16,20:00:00,8,��,2.1,18.4,85.4,0,0,10,�쐼,8,10,,
2016/9/16,21:00:00,9,��쐼,2.2,18.3,87.1,0,0,9,��쐼,6.6,5,,
2016/9/16,22:00:00,10,�쐼,2.1,18.6,84.9,0,0,8,��,5.5,41,,
2016/9/16,23:00:00,9,��쐼,3.9,18.8,87.6,0,0,8,��,7.4,31,,
2016/9/16,0:00:00,9,��쐼,1.9,18.2,90,0,0,8,��,6.9,4,,
2016/9/17,1:00:00,4,��,0.5,16.4,87.1,0,0,9,��쐼,5.3,36,,
2016/9/17,2:00:00,4,��,1.3,16.2,90.4,0,0,5,���쓌,3.7,58,,